| time (UTC) | temp F | wind direction | speed MPH | gust MPH | rain 1hr in | rain 24hr in | rain mn in | humidity % | barometer mb |
| 20260506024510 | 47 | 288 | 0.0 | 0.0 | 0.00 | 0.17 | 0.01 | 99 | 1016.2 |
| 20260506023003 | 47 | 288 | 0.0 | 0.0 | 0.01 | 0.17 | 0.01 | 99 | 1016.2 |
| 20260506021506 | 47 | 288 | 0.0 | 1.0 | 0.01 | 0.17 | 0.01 | 100 | 1016.1 |
| 20260506020001 | 47 | 288 | 0.0 | 0.0 | 0.01 | 0.17 | 0.01 | 99 | 1016.0 |
| 20260506014613 | 47 | 288 | 0.0 | 0.0 | 0.01 | 0.17 | 0.01 | 99 | 1015.8 |
| 20260506014503 | 47 | 288 | 0.0 | 0.0 | 0.01 | 0.17 | 0.01 | 100 | 1015.8 |
| 20260506013059 | 47 | 288 | 0.0 | 0.0 | 0.00 | 0.17 | 0.00 | 100 | 1015.7 |
| 20260506011623 | 47 | 288 | 1.0 | 4.0 | 0.00 | 0.17 | 0.00 | 100 | 1015.8 |
| 20260506010057 | 47 | 128 | 0.0 | 4.0 | 0.00 | 0.17 | 0.00 | 100 | 1015.9 |
| 20260506004604 | 47 | 278 | 0.0 | 0.0 | 0.00 | 0.17 | 0.00 | 100 | 1016.1 |
| 20260506003053 | 48 | 280 | 0.0 | 0.0 | 0.00 | 0.17 | 0.00 | 100 | 1016.2 |
| 20260506001551 | 49 | 278 | 0.0 | 0.0 | 0.00 | 0.17 | 0.00 | 100 | 1016.2 |
| 20260506000114 | 49 | 278 | 0.0 | 0.0 | 0.00 | 0.17 | 0.00 | 100 | 1016.3 |
| 20260505234552 | 50 | 280 | 0.0 | 0.0 | 0.00 | 0.17 | 0.00 | 99 | 1016.3 |
| 20260505233046 | 50 | 280 | 0.0 | 0.0 | 0.00 | 0.17 | 0.00 | 99 | 1016.3 |
| 20260505231546 | 50 | 280 | 0.0 | 2.0 | 0.00 | 0.17 | 0.00 | 99 | 1016.3 |
| 20260505230059 | 51 | 278 | 0.0 | 0.0 | 0.00 | 0.17 | 0.00 | 99 | 1016.0 |
| 20260505224542 | 51 | 280 | 0.0 | 0.0 | 0.00 | 0.17 | 0.00 | 100 | 1016.1 |
| 20260505223039 | 52 | 278 | 0.0 | 0.0 | 0.00 | 0.17 | 0.00 | 100 | 1016.5 |
| 20260505221536 | 52 | 278 | 0.0 | 0.0 | 0.00 | 0.17 | 0.00 | 100 | 1016.5 |
| 20260505220034 | 52 | 279 | 0.0 | 0.0 | 0.00 | 0.17 | 0.00 | 100 | 1016.7 |
| 20260505214533 | 52 | 279 | 0.0 | 2.0 | 0.00 | 0.17 | 0.17 | 100 | 1016.7 |
| 20260505213034 | 52 | 279 | 1.0 | 4.0 | 0.00 | 0.17 | 0.17 | 99 | 1016.7 |
| 20260505211536 | 52 | 284 | 0.0 | 2.0 | 0.00 | 0.17 | 0.17 | 100 | 1016.5 |
| 20260505210032 | 52 | 302 | 1.0 | 3.0 | 0.00 | 0.17 | 0.17 | 99 | 1016.5 |
| 20260505204543 | 52 | 316 | 0.0 | 1.0 | 0.00 | 0.21 | 0.17 | 99 | 1016.2 |
| 20260505203034 | 52 | 315 | 0.0 | 1.0 | 0.00 | 0.21 | 0.17 | 99 | 1016.2 |
| 20260505201531 | 52 | 316 | 0.0 | 1.0 | 0.00 | 0.21 | 0.17 | 100 | 1016.1 |
| 20260505200029 | 52 | 314 | 0.0 | 0.0 | 0.00 | 0.21 | 0.17 | 99 | 1015.8 |
| 20260505194534 | 52 | 316 | 0.0 | 0.0 | 0.00 | 0.24 | 0.17 | 100 | 1015.5 |
| 20260505193027 | 52 | 316 | 0.0 | 0.0 | 0.00 | 0.24 | 0.17 | 99 | 1015.3 |
| 20260505191527 | 53 | 315 | 0.0 | 3.0 | 0.00 | 0.24 | 0.17 | 99 | 1015.2 |
| 20260505190033 | 53 | 301 | 0.0 | 1.0 | 0.00 | 0.24 | 0.17 | 99 | 1015.3 |
| 20260505184532 | 53 | 297 | 0.0 | 0.0 | 0.00 | 0.24 | 0.17 | 99 | 1015.2 |
| 20260505183025 | 54 | 297 | 0.0 | 2.0 | 0.01 | 0.24 | 0.17 | 99 | 1015.3 |
| 20260505181525 | 54 | 297 | 0.0 | 0.0 | 0.02 | 0.24 | 0.17 | 99 | 1015.0 |
| 20260505180035 | 54 | 297 | 0.0 | 2.0 | 0.02 | 0.24 | 0.17 | 99 | 1015.3 |
| 20260505174525 | 53 | 301 | 1.0 | 5.0 | 0.02 | 0.24 | 0.17 | 99 | 1014.9 |
| 20260505173026 | 54 | 190 | 1.0 | 3.0 | 0.01 | 0.23 | 0.16 | 99 | 1015.1 |
| 20260505171523 | 53 | 283 | 0.0 | 0.0 | 0.00 | 0.22 | 0.15 | 99 | 1015.4 |
| 20260505170023 | 53 | 281 | 1.0 | 4.0 | 0.14 | 0.22 | 0.15 | 99 | 1015.7 |
| 20260505164521 | 52 | 288 | 1.0 | 3.0 | 0.14 | 0.22 | 0.15 | 99 | 1015.8 |
| 20260505163023 | 52 | 283 | 2.0 | 4.0 | 0.14 | 0.22 | 0.15 | 98 | 1015.7 |
| 20260505161520 | 53 | 337 | 3.0 | 12.0 | 0.14 | 0.22 | 0.15 | 95 | 1015.5 |
| 20260505153017 | 65 | 112 | 3.0 | 6.0 | 0.00 | 0.09 | 0.01 | 67 | 1014.5 |
| 20260505151517 | 65 | 97 | 4.0 | 9.0 | 0.00 | 0.09 | 0.01 | 65 | 1014.6 |
| 20260505124601 | 62 | 146 | 4.0 | 8.0 | 0.00 | 0.09 | 0.01 | 96 | 1015.4 |
| 20260505123102 | 64 | 228 | 1.0 | 2.0 | 0.00 | 0.09 | 0.01 | 97 | 1015.4 |
| 20260505121623 | 63 | 90 | 3.0 | 7.0 | 0.00 | 0.09 | 0.01 | 97 | 1015.8 |
| 20260505120053 | 62 | 145 | 0.0 | 4.0 | 0.00 | 0.09 | 0.01 | 98 | 1015.8 |
| 20260505114551 | 63 | 123 | 0.0 | 4.0 | 0.00 | 0.09 | 0.01 | 98 | 1016.1 |
| 20260505113055 | 62 | 96 | 3.0 | 7.0 | 0.00 | 0.09 | 0.01 | 98 | 1016.2 |
| 20260505111552 | 60 | 134 | 0.0 | 3.0 | 0.00 | 0.09 | 0.01 | 99 | 1016.4 |
| 20260505101546 | 59 | 141 | 1.0 | 9.0 | 0.00 | 0.09 | 0.01 | 98 | 1016.8 |
| 20260505100108 | 60 | 103 | 1.0 | 5.0 | 0.00 | 0.09 | 0.01 | 98 | 1016.6 |
| 20260505094544 | 61 | 152 | 2.0 | 4.0 | 0.00 | 0.09 | 0.01 | 99 | 1016.4 |
| 20260505093039 | 59 | 293 | 0.0 | 2.0 | 0.00 | 0.09 | 0.01 | 99 | 1016.3 |
| 20260505091550 | 56 | 139 | 0.0 | 2.0 | 0.00 | 0.09 | 0.01 | 99 | 1016.2 |
| 20260505090048 | 56 | 142 | 0.0 | 4.0 | 0.00 | 0.09 | 0.01 | 99 | 1016.6 |
| 20260505084535 | 57 | 146 | 1.0 | 2.0 | 0.00 | 0.09 | 0.01 | 99 | 1016.7 |
| 20260505083045 | 57 | 148 | 0.0 | 3.0 | 0.00 | 0.09 | 0.01 | 99 | 1016.8 |
| 20260505081540 | 58 | 298 | 0.0 | 3.0 | 0.00 | 0.09 | 0.01 | 99 | 1016.4 |
| 20260505080044 | 58 | 216 | 0.0 | 2.0 | 0.00 | 0.09 | 0.01 | 99 | 1016.3 |
| 20260505074527 | 56 | 286 | 0.0 | 2.0 | 0.00 | 0.09 | 0.01 | 100 | 1016.3 |
| 20260505073026 | 54 | 287 | 0.0 | 1.0 | 0.00 | 0.09 | 0.01 | 99 | 1016.5 |
| 20260505071534 | 53 | 287 | 0.0 | 1.0 | 0.00 | 0.09 | 0.01 | 100 | 1016.7 |
| 20260505070023 | 53 | 287 | 0.0 | 2.0 | 0.00 | 0.09 | 0.01 | 100 | 1016.7 |
| 20260505064523 | 52 | 286 | 0.0 | 1.0 | 0.00 | 0.09 | 0.01 | 100 | 1016.6 |
| 20260505063030 | 52 | 286 | 0.0 | 0.0 | 0.00 | 0.09 | 0.01 | 99 | 1016.7 |
| 20260505061524 | 51 | 287 | 0.0 | 0.0 | 0.00 | 0.09 | 0.01 | 100 | 1016.6 |
| 20260505060019 | 50 | 286 | 0.0 | 1.0 | 0.00 | 0.09 | 0.01 | 100 | 1016.5 |
| 20260505054516 | 49 | 286 | 0.0 | 0.0 | 0.00 | 0.09 | 0.01 | 99 | 1016.7 |
| 20260505053017 | 49 | 286 | 0.0 | 0.0 | 0.00 | 0.09 | 0.01 | 100 | 1016.5 |
| 20260505051532 | 49 | 287 | 0.0 | 2.0 | 0.00 | 0.09 | 0.01 | 99 | 1016.4 |
| 20260505041513 | 49 | 278 | 0.0 | 1.0 | 0.00 | 0.09 | 0.01 | 99 | 1016.7 |
| 20260505040014 | 49 | 278 | 0.0 | 1.0 | 0.00 | 0.09 | 0.01 | 99 | 1016.6 |
| 20260505034511 | 49 | 278 | 0.0 | 1.0 | 0.01 | 0.09 | 0.01 | 99 | 1016.5 |
| 20260505033010 | 50 | 278 | 0.0 | 2.0 | 0.01 | 0.09 | 0.01 | 99 | 1016.4 |
| 20260505031522 | 49 | 278 | 0.0 | 2.0 | 0.01 | 0.09 | 0.01 | 99 | 1016.4 |
| 20260505030008 | 49 | 278 | 0.0 | 2.0 | 0.01 | 0.09 | 0.01 | 99 | 1016.5 |